Location: Hamilton
(37.7830°S, 175.2830°E)
Time: 10:29:29
(UTC+12:00)

CENTAUR R/B - Pass Details

Date: 24 January 2019
Orbit: 787 x 1401 km, 63.5° (Epoch: 15 April)

Event Time Altitude Azimuth Distance (km) Brightness Sun altitude
Exits shadow 23:29:01 34° 85° (E) 1,924 3.7 -26.2°
Drops below altitude 10° 23:34:30 10° 130° (SE) 3,072 5.2 -26.8°
Sets 23:37:16 0° 138° (SE) 3,945 5.9 -27.0°
